This is the latest recevied weather packets stored in our database for station/object KC4LZN. If no packets are shown the sender has not sent any weather packets the latest 10 day(s).
| Time | Temp. | Humidity | Pressure | Rain* | Wind** | Luminosity | Snow |
|---|---|---|---|---|---|---|---|
| 1777989283 | 25° C | 71% | 1017.3 hPa | 0 mm | - | 535 W/m² | - |
| 1777988979 | 24.44° C | 70% | 1017.4 hPa | 0 mm | - | 514 W/m² | - |
| 1777988676 | 25° C | 71% | 1017.2 hPa | 0 mm | - | 502 W/m² | - |
| 1777988372 | 23.89° C | 73% | 1017.1 hPa | 0 mm | - | 485 W/m² | - |
| 1777988070 | 23.89° C | 71% | 1017.3 hPa | 0 mm | - | 448 W/m² | - |
| 1777987765 | 24.44° C | 73% | 1017.4 hPa | 0 mm | - | 449 W/m² | - |
| 1777987462 | 24.44° C | 72% | 1017.4 hPa | 0 mm | - | 402 W/m² | - |
| 1777987160 | 23.89° C | 73% | 1017.5 hPa | 0 mm | - | 405 W/m² | - |
| 1777986856 | 23.89° C | 73% | 1017.4 hPa | 0 mm | - | 385 W/m² | - |
| 1777986554 | 23.33° C | 74% | 1017.3 hPa | 0 mm | - | 373 W/m² | - |
| 1777986252 | 22.78° C | 77% | 1017.6 hPa | 0 mm | - | 340 W/m² | - |
| 1777985949 | 22.22° C | 77% | 1017.3 hPa | 0 mm | - | 305 W/m² | - |
| 1777985647 | 22.22° C | 78% | 1017.1 hPa | 0 mm | - | 304 W/m² | - |
| 1777985343 | 22.22° C | 78% | 1017.2 hPa | 0 mm | - | 284 W/m² | - |
| 1777985040 | 22.22° C | 77% | 1017 hPa | 0 mm | - | 289 W/m² | - |
| 1777984736 | 22.22° C | 78% | 1017.1 hPa | 0 mm | - | 247 W/m² | - |
| 1777984433 | 22.22° C | 78% | 1017.3 hPa | 0 mm | - | 227 W/m² | - |
| 1777984128 | 21.67° C | 80% | 1017 hPa | 0 mm | - | 179 W/m² | - |
| 1777983826 | 21.67° C | 80% | 1017.1 hPa | 0 mm | - | 153 W/m² | - |
| 1777983523 | 21.67° C | 81% | 1017.2 hPa | 0 mm | - | 133 W/m² | - |
| 1777983220 | 21.11° C | 82% | 1017.2 hPa | 0 mm | - | 113 W/m² | - |
| 1777982916 | 20.56° C | 83% | 1017.1 hPa | 0 mm | - | 101 W/m² | - |
| 1777982612 | 20.56° C | 85% | 1016.9 hPa | 0 mm | - | 89 W/m² | - |
| 1777982311 | 20° C | 88% | 1016.7 hPa | 0 mm | - | 79 W/m² | - |
| 1777982008 | 18.89° C | 92% | 1016.8 hPa | 0 mm | - | 73 W/m² | - |
* Rain latest hour (hover to see other rain measurements)
** Current wind speed in m/s (hover to see current wind gust speed)